Home > Weather > Bochum > Past weeks

Flag for Germany Weather for the Past 2 Weeks in Bochum, North Rhine-Westphalia, Germany

Now
34 °F

Light rain. Low clouds.


Feels Like: 27 °F
Forecast: 29 / 36 °F
Wind: 8 mph from Southwest

Location: Dortmund / Wickede

Current Time: Feb 14, 2016 at 6:04:00 PM

Latest Report: Feb 14, 2016 at 5:20 PM


Visibility: 4 mi

Pressure: 29.27 "Hg

Humidity: 93%

Dew point: 32 °F

Location of BochumLocation

Historic Weather in Bochum — Graph

°F

Bochum Temperature Yesterday

Maximum temperature yesterday: 41 °F (at 1:50 PM)
Minimum temperature yesterday: 27 °F (at 5:50 AM)
Average temperature yesterday: 35 °F

High & Low Weather Summary for the Past Weeks

 TemperatureHumidityPressure
High52 °F (Feb 1, 5:20 AM)94% (Feb 1, 7:20 AM)30.27 "Hg (Feb 1, 7:20 AM)
Low27 °F (Feb 13, 5:50 AM)53% (Feb 3, 3:20 PM)28.82 "Hg (Feb 9, 3:50 PM)
Average42 °F77%29.65 "Hg
* Reported Jan 30 4:20 PM — Feb 14 4:50 PM, Bochum, Weather by CustomWeather, © 2016

Note: Actual official high and low records may vary slightly from our data, if they occured in-between our weather recording intervals... More about our weather records

Advertising

Bochum Weather History for the Previous 24 Hours

 ConditionsComfort  
Time TempWeatherWind HumidityBarometerVisibility
4:50 PM
Sun, Feb 14
34 °FLight rain. Overcast.10 mph93%29.27 "Hg4 mi
4:20 PM36 °FOvercast.7 mph93%29.24 "Hg4 mi
3:50 PM36 °FLow clouds.5 mph93%29.24 "Hg4 mi
3:20 PM36 °FLow clouds.6 mph93%29.21 "Hg4 mi
2:50 PM36 °FFog.8 mph93%29.21 "Hg3 mi
2:20 PM36 °FFog.2 mph93%29.21 "Hg1 mi
1:50 PM36 °FFog.1 mph93%29.18 "Hg1 mi
1:20 PM36 °FFog.1 mph93%29.18 "Hg1 mi
12:50 PM36 °FFog.3 mph93%29.15 "Hg1 mi
12:20 PM36 °FFog.3 mph93%29.15 "Hg1 mi
11:50 AM36 °FFog.3 mph93%29.15 "Hg1 mi
11:20 AM37 °FFog.3 mph87%29.12 "Hg1 mi
10:50 AM37 °FFog.2 mph87%29.12 "Hg1 mi
10:20 AM36 °FFog.1 mph93%29.12 "Hg1 mi
9:50 AM36 °FFog.2 mph93%29.09 "Hg1 mi
9:20 AM36 °FFog.2 mph93%29.09 "Hg1 mi
8:50 AM36 °FFog.1 mph93%29.09 "Hg1 mi
8:20 AM36 °FFog.3 mph93%29.06 "Hg1 mi
7:50 AM36 °FFog.3 mph93%29.06 "Hg1 mi
7:20 AM36 °FFog.5 mph93%29.06 "Hg1 mi
6:50 AM36 °FFog.5 mph93%29.03 "Hg1 mi
6:20 AM36 °FFog.3 mph93%29.03 "Hg1 mi
5:50 AM36 °FFog.3 mph87%29.03 "Hg2 mi
5:20 AM36 °FFog.6 mph93%29.03 "Hg2 mi
10:50 PM
Sat, Feb 13
36 °FPassing clouds.12 mph87%29.03 "HgN/A
10:20 PM36 °FPassing clouds.13 mph87%29.06 "HgN/A
9:50 PM36 °FPassing clouds.12 mph87%29.06 "HgN/A
9:20 PM36 °FPassing clouds.10 mph87%29.06 "HgN/A
8:50 PM36 °FPassing clouds.9 mph87%29.09 "Hg6 mi
8:20 PM36 °FLight rain. Passing clouds.10 mph87%29.09 "HgN/A
7:50 PM36 °FPassing clouds.9 mph87%29.09 "HgN/A
7:20 PM36 °FSprinkles. Passing clouds.9 mph87%29.09 "HgN/A
6:50 PM36 °FLight rain. Passing clouds.10 mph87%29.12 "Hg5 mi
6:20 PM36 °FPassing clouds.9 mph87%29.12 "HgN/A
Weather by CustomWeather, © 2016

See weather overviewHow to use our weather pages